Regional Weather Roundup
Issued by NWS Green Bay, WI

Home | Current Version | Previous Version | Text Only | Print | Product List | Glossary On
Versions: 1 2 3 4 5 6 7 8 9 10 11 12 13 14 15 16 17 18 19 20 21 22 23 24 25 26 27 28 29 30 31 32 33 34 35 36 37 38 39 40 41 42 43 44 45 46 47 48 49 50
000
ASUS43 KGRB 161710
RWRGRB

NORTH-CENTRAL AND NORTHEAST WISCONSIN REGIONAL WEATHER ROUNDUP
NATIONAL WEATHER SERVICE GREEN BAY WI
1200 PM CDT TUE SEP 16 2014

WIZ005-009-010>012-018-019-161800-
NORTH CENTRAL WISCONSIN

CITY           SKY/WX    TMP DP  RH WIND       PRES   REMARKS
IRONWOOD       SUNNY     61  41  48 W20G25    30.03S
MANITOWISH WTR SUNNY     59  40  48 W12G20    30.08S
ARBOR VITAE    SUNNY     60  39  45 NW13G20   30.09S
EAGLE RIVER    SUNNY     60  35  39 W17       30.07F
LAND O LAKES   SUNNY     61  39  44 W9G17     30.07F
RHINELANDER    SUNNY     60  39  45 W14G20    30.11F
PHILLIPS       SUNNY     60  40  48 W7        30.11S
ANTIGO         SUNNY     59  42  53 W10G16    30.13S
TOMAHAWK       SUNNY     60  38  43 W8G17     30.12F
MERRILL        PTSUNNY   61  41  49 W13       30.12F
$$

WIZ013-073-161800-
NORTHEAST WISCONSIN

CITY           SKY/WX    TMP DP  RH WIND       PRES   REMARKS
IRON MOUNTAIN  SUNNY     62  38  40 W13G22    30.05F
MARINETTE      SUNNY     61  39  44 W8        30.10S
OCONTO         SUNNY     61  40  44 W10       30.12S
$$

WIZ017-030-035>037-045-161800-
CENTRAL WISCONSIN

CITY           SKY/WX    TMP DP  RH WIND       PRES   REMARKS
MEDFORD        SUNNY     59  42  53 SW8       30.14F
WAUSAU         SUNNY     60  41  49 W7        30.13F
MOSINEE        SUNNY     61  43  51 W13G20    30.15F
MARSHFIELD     SUNNY     62  43  49 W12       30.15F
WISC RAPIDS    SUNNY     61  39  44 W10       30.17F
STEVENS POINT  SUNNY     58  39  48 W7        30.16S
WAUPACA        SUNNY     63  40  42 W9        30.16S
SHAWANO        SUNNY     63  40  44 W8        30.13F
CLINTONVILLE   SUNNY     61  37  41 W7        30.14S
$$

WIZ038-039-048-051-161800-
FOX VALLEY

CITY           SKY/WX    TMP DP  RH WIND       PRES   REMARKS
NWS GREEN BAY  SUNNY     62  41  46 SW9       30.14F
APPLETON       SUNNY     59  37  44 W9        30.16F
OSHKOSH        SUNNY     59  38  45 W8        30.16F
FOND DU LAC    SUNNY     59  37  44 SW3       30.17F
$$

WIZ022-050-052-161800-
EAST CENTRAL WISCONSIN

CITY           SKY/WX    TMP DP  RH WIND       PRES   REMARKS
STURGEON BAY   SUNNY     59  37  44 W13       30.13S
MANITOWOC      SUNNY     60  40  47 W8        30.16F
SHEBOYGAN      SUNNY     60  40  47 SW9       30.17F
$$

LMZ563-521-522-541>543-161800-
LAKESHORE

STATION/POSITION TIME  TEMP    WIND        PRES    VSBY  WAVE
                       AIR SEA DIR/SP/G                  HT/PER
                 (UTC) (F)     (DEG/KT/KT) (MB)    (MI)  (FT/S)
SHEBOYGAN LKSHOR 1700   57 51  290/  7/  9 1021.8F
KEWAUNEE LKSHORE 1600   57     280/  3/  7 1020.1F
NORTHPORT PIER   1700   60     260/  6/ 13 1019.0F
N MID LAKE BUOY  1700   54 59  220/ 12/ 14 1019.4F         1/ 3
S GREEN BAY BUOY 1700   59     VRB 10/ 14  1020.9F
CHAMBERS ISLAND  1700   60     220/  7/ 11 1019.6S
MENOMINEE LKSHOR 1600   58     240/ 10/ 13 1020.5F
$$


USA.gov is the U.S. government's official web portal to all federal, state and local government web resources and services.